Time,TemperatureF,DewpointF,PressureIn,WindDirection,WindDirectionDegrees,WindSpeedMPH,WindSpeedGustMPH,Humidity,HourlyPrecipIn,Conditions,Clouds,dailyrainin,SoftwareType,DateUTC
2013-09-15 00:01:00,67.9,49.6,30.05,SSW,203,1.8,2.9,52,0.00,,,0.00,WUHU216HW,2013-09-15 05:01:00,
2013-09-15 00:06:00,67.9,49.6,30.05,SE,135,0.9,2.9,52,0.00,,,0.00,WUHU216HW,2013-09-15 05:06:00,
2013-09-15 00:11:00,67.9,49.6,30.05,ESE,113,2.5,2.5,52,0.00,,,0.00,WUHU216HW,2013-09-15 05:11:00,
2013-09-15 00:16:00,67.7,49.4,30.05,WSW,248,1.1,2.5,52,0.00,,,0.00,WUHU216HW,2013-09-15 05:16:00,
2013-09-15 00:21:00,67.7,49.4,30.05,South,180,1.1,2.5,52,0.00,,,0.00,WUHU216HW,2013-09-15 05:21:00,
2013-09-15 00:26:00,67.5,49.2,30.05,WSW,248,1.8,1.8,52,0.00,,,0.00,WUHU216HW,2013-09-15 05:26:00,
2013-09-15 00:31:00,67.5,49.2,30.06,SSE,158,0.4,1.8,52,0.00,,,0.00,WUHU216HW,2013-09-15 05:31:00,
2013-09-15 00:36:00,67.3,49.6,30.06,West,270,1.1,1.8,53,0.00,,,0.00,WUHU216HW,2013-09-15 05:36:00,
2013-09-15 00:41:00,67.3,49.6,30.05,SSW,203,2.7,2.7,53,0.00,,,0.00,WUHU216HW,2013-09-15 05:41:00,
2013-09-15 00:46:00,67.3,49.6,30.05,SSE,158,2.0,2.7,53,0.00,,,0.00,WUHU216HW,2013-09-15 05:46:00,
2013-09-15 00:51:00,67.3,49.2,30.05,South,180,2.2,2.7,52,0.00,,,0.00,WUHU216HW,2013-09-15 05:51:00,
2013-09-15 00:56:00,67.3,49.6,30.05,South,180,2.5,4.7,53,0.00,,,0.00,WUHU216HW,2013-09-15 05:56:00,
2013-09-15 01:01:00,67.3,49.6,30.05,SSE,158,1.8,4.7,53,0.00,,,0.00,WUHU216HW,2013-09-15 06:01:00,
2013-09-15 01:06:00,67.3,49.6,30.05,SSE,158,1.8,2.7,53,0.00,,,0.00,WUHU216HW,2013-09-15 06:06:00,
2013-09-15 01:11:00,67.3,49.6,30.06,South,180,2.2,2.7,53,0.00,,,0.00,WUHU216HW,2013-09-15 06:11:00,
2013-09-15 01:16:00,67.3,49.6,30.06,South,180,3.4,3.4,53,0.00,,,0.00,WUHU216HW,2013-09-15 06:16:00,
2013-09-15 01:21:00,67.3,49.6,30.05,SSE,158,3.8,3.8,53,0.00,,,0.00,WUHU216HW,2013-09-15 06:21:00,
2013-09-15 01:26:00,67.3,49.6,30.04,SSW,203,4.3,4.3,53,0.00,,,0.00,WUHU216HW,2013-09-15 06:26:00,
2013-09-15 01:31:00,67.1,49.4,30.05,South,180,1.8,4.3,53,0.00,,,0.00,WUHU216HW,2013-09-15 06:31:00,
2013-09-15 01:36:00,67.1,49.4,30.05,SSW,203,2.2,4.3,53,0.00,,,0.00,WUHU216HW,2013-09-15 06:36:00,
2013-09-15 01:41:00,67.1,50.0,30.05,South,180,4.7,4.7,54,0.00,,,0.00,WUHU216HW,2013-09-15 06:41:00,
2013-09-15 01:46:00,67.0,49.2,30.05,South,180,2.0,4.7,53,0.00,,,0.00,WUHU216HW,2013-09-15 06:46:00,
2013-09-15 01:51:00,67.0,49.8,30.05,South,180,3.4,4.7,54,0.00,,,0.00,WUHU216HW,2013-09-15 06:51:00,
2013-09-15 01:56:00,67.0,49.8,30.05,South,180,1.3,3.4,54,0.00,,,0.00,WUHU216HW,2013-09-15 06:56:00,
2013-09-15 02:01:00,66.8,49.6,30.05,SW,225,4.3,4.3,54,0.00,,,0.00,WUHU216HW,2013-09-15 07:01:00,
2013-09-15 02:06:00,66.8,49.6,30.05,ENE,68,0.4,4.3,54,0.00,,,0.00,WUHU216HW,2013-09-15 07:06:00,
2013-09-15 02:11:00,66.6,49.4,30.06,South,180,3.6,4.3,54,0.00,,,0.00,WUHU216HW,2013-09-15 07:11:00,
2013-09-15 02:16:00,66.6,49.4,30.05,SSW,203,1.1,3.6,54,0.00,,,0.00,WUHU216HW,2013-09-15 07:16:00,
2013-09-15 02:21:00,66.6,49.4,30.06,South,180,4.3,4.3,54,0.00,,,0.00,WUHU216HW,2013-09-15 07:21:00,
2013-09-15 02:26:00,66.6,49.4,30.06,South,180,4.3,4.3,54,0.00,,,0.00,WUHU216HW,2013-09-15 07:26:00,
2013-09-15 02:31:00,66.6,50.0,30.05,SSW,203,2.5,4.3,55,0.00,,,0.00,WUHU216HW,2013-09-15 07:31:00,
2013-09-15 02:36:00,66.4,49.8,30.05,SSE,158,2.0,4.3,55,0.00,,,0.00,WUHU216HW,2013-09-15 07:36:00,
2013-09-15 02:41:00,66.4,49.8,30.05,South,180,3.4,3.4,55,0.00,,,0.00,WUHU216HW,2013-09-15 07:41:00,
2013-09-15 02:46:00,66.2,49.6,30.05,SSW,203,1.1,3.4,55,0.00,,,0.00,WUHU216HW,2013-09-15 07:46:00,
2013-09-15 02:51:00,66.2,49.6,30.05,South,180,1.6,3.4,55,0.00,,,0.00,WUHU216HW,2013-09-15 07:51:00,
2013-09-15 02:56:00,66.2,49.6,30.05,SSE,158,2.2,2.2,55,0.00,,,0.00,WUHU216HW,2013-09-15 07:56:00,
2013-09-15 03:01:00,66.2,49.6,30.05,SSE,158,3.4,3.4,55,0.00,,,0.00,WUHU216HW,2013-09-15 08:01:00,
2013-09-15 03:06:00,66.1,49.9,30.05,SE,135,1.8,3.4,56,0.00,,,0.00,WUHU216HW,2013-09-15 08:06:00,
2013-09-15 03:11:00,66.1,49.9,30.05,SE,135,1.8,3.4,56,0.00,,,0.00,WUHU216HW,2013-09-15 08:11:00,
2013-09-15 03:16:00,65.9,50.7,30.04,SSE,158,0.9,1.8,58,0.00,,,0.00,WUHU216HW,2013-09-15 08:16:00,
2013-09-15 03:21:00,65.9,50.7,30.04,WSW,248,1.8,1.8,58,0.00,,,0.00,WUHU216HW,2013-09-15 08:21:00,
2013-09-15 03:26:00,65.9,50.7,30.04,SE,135,2.2,2.2,58,0.00,,,0.00,WUHU216HW,2013-09-15 08:26:00,
2013-09-15 03:31:00,65.7,50.5,30.04,SSE,158,1.1,2.2,58,0.00,,,0.00,WUHU216HW,2013-09-15 08:31:00,
2013-09-15 03:36:00,65.7,50.5,30.04,South,180,1.6,2.2,58,0.00,,,0.00,WUHU216HW,2013-09-15 08:36:00,
2013-09-15 03:41:00,65.5,50.9,30.04,SW,225,1.8,1.8,59,0.00,,,0.00,WUHU216HW,2013-09-15 08:41:00,
2013-09-15 03:46:00,65.5,50.9,30.04,South,180,3.4,3.4,59,0.00,,,0.00,WUHU216HW,2013-09-15 08:46:00,
2013-09-15 03:51:00,65.3,51.1,30.03,SSE,158,2.0,3.4,60,0.00,,,0.00,WUHU216HW,2013-09-15 08:51:00,
2013-09-15 03:56:00,65.3,51.1,30.03,SSE,158,2.9,3.4,60,0.00,,,0.00,WUHU216HW,2013-09-15 08:56:00,
2013-09-15 04:01:00,65.3,51.6,30.04,WSW,248,2.5,2.9,61,0.00,,,0.00,WUHU216HW,2013-09-15 09:01:00,
2013-09-15 04:06:00,65.3,51.6,30.04,SSW,203,2.5,2.9,61,0.00,,,0.00,WUHU216HW,2013-09-15 09:06:00,
2013-09-15 04:11:00,65.2,51.4,30.04,South,180,1.8,2.5,61,0.00,,,0.00,WUHU216HW,2013-09-15 09:11:00,
2013-09-15 04:16:00,65.2,51.4,30.04,SSE,158,3.4,3.4,61,0.00,,,0.00,WUHU216HW,2013-09-15 09:16:00,
2013-09-15 04:21:00,65.2,51.4,30.04,SSW,203,0.0,3.4,61,0.00,,,0.00,WUHU216HW,2013-09-15 09:21:00,
2013-09-15 04:26:00,65.2,51.4,30.04,SSE,158,2.2,3.4,61,0.00,,,0.00,WUHU216HW,2013-09-15 09:26:00,
2013-09-15 04:31:00,65.2,51.8,30.04,SSE,158,0.9,2.2,62,0.00,,,0.00,WUHU216HW,2013-09-15 09:31:00,
2013-09-15 04:36:00,65.2,51.8,30.04,SSW,203,0.7,2.2,62,0.00,,,0.00,WUHU216HW,2013-09-15 09:36:00,
2013-09-15 04:41:00,65.2,51.8,30.04,South,180,0.7,0.9,62,0.00,,,0.00,WUHU216HW,2013-09-15 09:41:00,
2013-09-15 04:46:00,65.2,51.8,30.04,South,180,0.7,0.7,62,0.00,,,0.00,WUHU216HW,2013-09-15 09:46:00,
2013-09-15 04:51:00,65.2,52.2,30.04,South,180,0.4,0.7,63,0.00,,,0.00,WUHU216HW,2013-09-15 09:51:00,
2013-09-15 04:56:00,65.2,52.2,30.04,SSW,203,1.8,1.8,63,0.00,,,0.00,WUHU216HW,2013-09-15 09:56:00,
2013-09-15 05:01:00,65.0,52.0,30.04,South,180,1.6,1.8,63,0.00,,,0.00,WUHU216HW,2013-09-15 10:01:00,
2013-09-15 05:06:00,65.0,52.5,30.04,South,180,0.4,1.8,64,0.00,,,0.00,WUHU216HW,2013-09-15 10:06:00,
2013-09-15 05:11:00,65.0,52.5,30.04,South,180,0.4,1.6,64,0.00,,,0.00,WUHU216HW,2013-09-15 10:11:00,
2013-09-15 05:16:00,64.8,52.3,30.04,SSW,203,1.1,1.1,64,0.00,,,0.00,WUHU216HW,2013-09-15 10:16:00,
2013-09-15 05:21:00,64.8,52.8,30.04,SSE,158,0.9,1.1,65,0.00,,,0.00,WUHU216HW,2013-09-15 10:21:00,
2013-09-15 05:26:00,64.8,52.8,30.04,SSE,158,1.1,1.1,65,0.00,,,0.00,WUHU216HW,2013-09-15 10:26:00,
2013-09-15 05:31:00,64.8,52.8,30.04,SSW,203,1.1,1.1,65,0.00,,,0.00,WUHU216HW,2013-09-15 10:31:00,
2013-09-15 05:36:00,64.8,52.8,30.04,South,180,1.1,1.1,65,0.00,,,0.00,WUHU216HW,2013-09-15 10:36:00,
2013-09-15 05:41:00,64.8,52.8,30.04,SSE,158,0.9,1.1,65,0.00,,,0.00,WUHU216HW,2013-09-15 10:41:00,
2013-09-15 05:46:00,64.8,52.8,30.04,South,180,1.3,1.3,65,0.00,,,0.00,WUHU216HW,2013-09-15 10:46:00,
2013-09-15 05:51:00,64.8,52.8,30.04,South,180,0.9,1.3,65,0.00,,,0.00,WUHU216HW,2013-09-15 10:51:00,
2013-09-15 05:56:00,64.6,53.0,30.04,South,180,1.1,1.3,66,0.00,,,0.00,WUHU216HW,2013-09-15 10:56:00,
2013-09-15 06:01:00,64.6,52.6,30.04,SSE,158,1.1,1.1,65,0.00,,,0.00,WUHU216HW,2013-09-15 11:01:00,
2013-09-15 06:06:00,64.8,52.8,30.04,SSE,158,1.3,1.3,65,0.00,,,0.00,WUHU216HW,2013-09-15 11:06:00,
2013-09-15 06:11:00,64.8,53.2,30.04,South,180,0.4,1.3,66,0.00,,,0.00,WUHU216HW,2013-09-15 11:11:00,
2013-09-15 06:16:00,64.8,53.2,30.04,SSW,203,2.5,2.5,66,0.00,,,0.00,WUHU216HW,2013-09-15 11:16:00,
2013-09-15 06:21:00,64.8,53.2,30.04,South,180,1.8,2.5,66,0.00,,,0.00,WUHU216HW,2013-09-15 11:21:00,
2013-09-15 06:26:00,65.0,52.9,30.05,SSE,158,2.5,2.5,65,0.00,,,0.00,WUHU216HW,2013-09-15 11:26:00,
2013-09-15 06:31:00,65.0,52.9,30.04,SW,225,1.1,2.5,65,0.00,,,0.00,WUHU216HW,2013-09-15 11:31:00,
2013-09-15 06:36:00,65.0,52.9,30.04,NE,45,1.3,2.5,65,0.00,,,0.00,WUHU216HW,2013-09-15 11:36:00,
2013-09-15 06:41:00,65.2,53.1,30.05,South,180,2.5,2.5,65,0.00,,,0.00,WUHU216HW,2013-09-15 11:41:00,
2013-09-15 06:46:00,65.2,53.1,30.05,South,180,1.8,2.5,65,0.00,,,0.00,WUHU216HW,2013-09-15 11:46:00,
2013-09-15 06:51:00,65.2,53.1,30.05,SSE,158,1.3,2.5,65,0.00,,,0.00,WUHU216HW,2013-09-15 11:51:00,
2013-09-15 06:56:00,65.2,53.1,30.05,SSE,158,1.3,2.0,65,0.00,,,0.00,WUHU216HW,2013-09-15 11:56:00,
2013-09-15 07:01:00,65.2,52.7,30.05,South,180,3.4,3.4,64,0.00,,,0.00,WUHU216HW,2013-09-15 12:01:00,
2013-09-15 07:06:00,65.3,52.8,30.05,SSE,158,1.1,3.4,64,0.00,,,0.00,WUHU216HW,2013-09-15 12:06:00,
2013-09-15 07:11:00,65.3,52.8,30.05,South,180,2.9,3.4,64,0.00,,,0.00,WUHU216HW,2013-09-15 12:11:00,
2013-09-15 07:16:00,65.3,52.8,30.05,SSW,203,3.4,3.4,64,0.00,,,0.00,WUHU216HW,2013-09-15 12:16:00,
2013-09-15 07:21:00,65.5,52.6,30.05,SSE,158,4.7,4.7,63,0.00,,,0.00,WUHU216HW,2013-09-15 12:21:00,
2013-09-15 07:26:00,65.5,52.6,30.05,SSW,203,1.3,4.7,63,0.00,,,0.00,WUHU216HW,2013-09-15 12:26:00,
2013-09-15 07:31:00,65.5,52.6,30.05,South,180,1.1,4.7,63,0.00,,,0.00,WUHU216HW,2013-09-15 12:31:00,
2013-09-15 07:36:00,65.5,53.0,30.05,SSE,158,2.2,2.2,64,0.00,,,0.00,WUHU216HW,2013-09-15 12:36:00,
2013-09-15 07:41:00,65.5,53.0,30.05,South,180,2.5,2.5,64,0.00,,,0.00,WUHU216HW,2013-09-15 12:41:00,
2013-09-15 07:46:00,65.5,53.0,30.06,SSW,203,1.8,2.5,64,0.00,,,0.00,WUHU216HW,2013-09-15 12:46:00,
2013-09-15 07:51:00,65.5,53.0,30.05,South,180,1.8,2.5,64,0.00,,,0.00,WUHU216HW,2013-09-15 12:51:00,
2013-09-15 07:56:00,65.5,53.4,30.06,South,180,2.0,2.0,65,0.00,,,0.00,WUHU216HW,2013-09-15 12:56:00,
2013-09-15 08:01:00,65.5,53.4,30.06,South,180,3.8,3.8,65,0.00,,,0.00,WUHU216HW,2013-09-15 13:01:00,
2013-09-15 08:06:00,65.7,53.6,30.06,SE,135,1.1,3.8,65,0.00,,,0.00,WUHU216HW,2013-09-15 13:06:00,
2013-09-15 08:11:00,65.7,53.6,30.05,SSE,158,2.5,3.8,65,0.00,,,0.00,WUHU216HW,2013-09-15 13:11:00,
2013-09-15 08:16:00,65.9,53.7,30.06,SW,225,4.0,4.0,65,0.00,,,0.00,WUHU216HW,2013-09-15 13:16:00,
2013-09-15 08:21:00,65.9,53.7,30.05,SSW,203,2.2,4.0,65,0.00,,,0.00,WUHU216HW,2013-09-15 13:21:00,
2013-09-15 08:26:00,66.1,53.9,30.05,South,180,2.9,4.0,65,0.00,,,0.00,WUHU216HW,2013-09-15 13:26:00,
2013-09-15 08:31:00,66.2,54.1,30.05,SW,225,2.7,2.9,65,0.00,,,0.00,WUHU216HW,2013-09-15 13:31:00,
2013-09-15 08:36:00,66.6,54.5,30.05,SSE,158,4.7,4.7,65,0.00,,,0.00,WUHU216HW,2013-09-15 13:36:00,
2013-09-15 08:41:00,66.8,54.2,30.06,SSE,158,3.4,4.7,64,0.00,,,0.00,WUHU216HW,2013-09-15 13:41:00,
2013-09-15 08:46:00,67.1,54.6,30.05,SW,225,3.1,4.7,64,0.00,,,0.00,WUHU216HW,2013-09-15 13:46:00,
2013-09-15 08:51:00,67.7,54.2,30.06,SSE,158,3.4,3.4,62,0.00,,,0.00,WUHU216HW,2013-09-15 13:51:00,
2013-09-15 08:56:00,67.9,54.4,30.06,SSE,158,4.9,4.9,62,0.00,,,0.00,WUHU216HW,2013-09-15 13:56:00,
2013-09-15 09:01:00,68.0,54.1,30.06,South,180,5.4,5.4,61,0.00,,,0.00,WUHU216HW,2013-09-15 14:01:00,
2013-09-15 09:06:00,68.4,54.5,30.06,SSE,158,1.8,5.4,61,0.00,,,0.00,WUHU216HW,2013-09-15 14:06:00,
2013-09-15 09:11:00,68.8,54.4,30.06,WSW,248,2.2,5.4,60,0.00,,,0.00,WUHU216HW,2013-09-15 14:11:00,
2013-09-15 09:16:00,69.1,54.7,30.07,SW,225,2.9,2.9,60,0.00,,,0.00,WUHU216HW,2013-09-15 14:16:00,
2013-09-15 09:21:00,69.5,54.5,30.07,SW,225,4.3,4.3,59,0.00,,,0.00,WUHU216HW,2013-09-15 14:21:00,
2013-09-15 09:26:00,69.8,54.5,30.07,South,180,3.6,4.3,58,0.00,,,0.00,WUHU216HW,2013-09-15 14:26:00,
2013-09-15 09:31:00,69.8,54.5,30.08,South,180,3.6,4.3,58,0.00,,,0.00,WUHU216HW,2013-09-15 14:31:00,
2013-09-15 09:36:00,70.4,53.9,30.08,SW,225,1.8,3.6,56,0.00,,,0.00,WUHU216HW,2013-09-15 14:36:00,
2013-09-15 09:41:00,70.6,55.1,30.08,SSW,203,1.1,3.6,58,0.00,,,0.00,WUHU216HW,2013-09-15 14:41:00,
2013-09-15 09:46:00,71.3,55.3,30.08,WSW,248,2.5,2.5,57,0.00,,,0.00,WUHU216HW,2013-09-15 14:46:00,
2013-09-15 09:51:00,71.6,55.1,30.08,SSW,203,6.3,6.3,56,0.00,,,0.00,WUHU216HW,2013-09-15 14:51:00,
2013-09-15 09:56:00,72.0,54.9,30.08,West,270,4.3,6.3,55,0.00,,,0.00,WUHU216HW,2013-09-15 14:56:00,
2013-09-15 10:01:00,72.4,55.2,30.08,SSW,203,2.5,6.3,55,0.00,,,0.00,WUHU216HW,2013-09-15 15:01:00,
2013-09-15 10:06:00,72.7,55.0,30.09,WSW,248,3.6,4.3,54,0.00,,,0.00,WUHU216HW,2013-09-15 15:06:00,
2013-09-15 10:11:00,73.1,54.8,30.09,SSW,203,4.0,4.0,53,0.00,,,0.00,WUHU216HW,2013-09-15 15:11:00,
2013-09-15 10:16:00,73.3,55.0,30.09,SSW,203,4.5,4.5,53,0.00,,,0.00,WUHU216HW,2013-09-15 15:16:00,
2013-09-15 10:21:00,73.3,54.5,30.09,WSW,248,3.4,4.5,52,0.00,,,0.00,WUHU216HW,2013-09-15 15:21:00,
2013-09-15 10:26:00,73.3,55.0,30.09,WSW,248,1.1,4.5,53,0.00,,,0.00,WUHU216HW,2013-09-15 15:26:00,
2013-09-15 10:31:00,73.3,55.0,30.09,WSW,248,1.1,4.3,53,0.00,,,0.00,WUHU216HW,2013-09-15 15:31:00,
2013-09-15 10:36:00,73.3,55.0,30.09,WSW,248,1.1,1.1,53,0.00,,,0.00,WUHU216HW,2013-09-15 15:36:00,
2013-09-15 11:00:00,73.8,57.1,30.12,WSW,248,4.0,4.0,56,0.00,,,0.00,WUHU216HW,2013-09-15 16:00:00,
2013-09-15 11:05:00,73.8,57.1,30.12,WSW,248,4.0,4.0,56,0.00,,,0.00,WUHU216HW,2013-09-15 16:05:00,
2013-09-15 12:00:00,70.9,63.3,30.12,SSE,158,1.8,1.8,77,0.02,,,0.00,WUHU216HW,2013-09-15 17:00:00,
2013-09-15 12:05:00,70.9,63.3,30.12,South,180,0.0,1.8,77,0.02,,,0.02,WUHU216HW,2013-09-15 17:05:00,
2013-09-15 12:10:00,71.1,63.9,30.12,South,180,0.0,1.8,78,0.02,,,0.02,WUHU216HW,2013-09-15 17:10:00,
2013-09-15 12:15:00,71.3,64.1,30.12,South,180,0.0,0.0,78,0.01,,,0.02,WUHU216HW,2013-09-15 17:15:00,
2013-09-15 12:20:00,71.6,64.8,30.11,SE,135,0.9,1.1,79,0.00,,,0.02,WUHU216HW,2013-09-15 17:20:00,
2013-09-15 12:25:00,71.8,64.2,30.12,South,180,2.2,2.2,77,0.00,,,0.02,WUHU216HW,2013-09-15 17:25:00,
2013-09-15 12:30:00,72.5,64.5,30.11,SSW,203,2.7,2.7,76,0.00,,,0.02,WUHU216HW,2013-09-15 17:30:00,
2013-09-15 12:35:00,72.7,64.4,30.11,West,270,2.2,2.7,75,0.00,,,0.02,WUHU216HW,2013-09-15 17:35:00,
2013-09-15 12:40:00,73.1,64.4,30.11,SW,225,1.3,2.7,74,0.00,,,0.02,WUHU216HW,2013-09-15 17:40:00,
2013-09-15 12:45:00,73.4,63.9,30.11,SSE,158,0.7,2.2,72,0.00,,,0.02,WUHU216HW,2013-09-15 17:45:00,
2013-09-15 12:50:00,73.6,64.1,30.11,SSE,158,0.0,1.3,72,0.00,,,0.02,WUHU216HW,2013-09-15 17:50:00,
2013-09-15 12:55:00,73.8,64.3,30.11,WSW,248,0.0,0.7,72,0.00,,,0.02,WUHU216HW,2013-09-15 17:55:00,
2013-09-15 13:00:00,74.0,64.1,30.11,NW,315,1.6,1.6,71,0.00,,,0.02,WUHU216HW,2013-09-15 18:00:00,
2013-09-15 13:05:00,74.3,63.1,30.11,SSW,203,0.7,1.6,68,0.00,,,0.02,WUHU216HW,2013-09-15 18:05:00,
2013-09-15 13:10:00,74.3,63.1,30.11,SSW,203,0.7,1.6,68,0.00,,,0.02,WUHU216HW,2013-09-15 18:10:00,
2013-09-15 13:15:00,75.2,63.9,30.11,NNW,338,0.2,0.7,68,0.00,,,0.02,WUHU216HW,2013-09-15 18:15:00,
2013-09-15 13:20:00,75.6,63.5,30.10,SE,135,0.9,0.9,66,0.00,,,0.02,WUHU216HW,2013-09-15 18:20:00,
2013-09-15 13:25:00,76.0,63.4,30.10,SSE,158,0.7,0.9,65,0.00,,,0.02,WUHU216HW,2013-09-15 18:25:00,
2013-09-15 13:30:00,77.0,63.9,30.10,WSW,248,2.2,2.2,64,0.00,,,0.02,WUHU216HW,2013-09-15 18:30:00,
2013-09-15 13:35:00,77.2,64.1,30.10,WSW,248,2.7,2.7,64,0.00,,,0.02,WUHU216HW,2013-09-15 18:35:00,
2013-09-15 13:40:00,77.2,63.6,30.10,WSW,248,4.0,4.0,63,0.00,,,0.02,WUHU216HW,2013-09-15 18:40:00,
2013-09-15 13:45:00,77.2,63.6,30.10,SW,225,0.7,4.0,63,0.00,,,0.02,WUHU216HW,2013-09-15 18:45:00,
2013-09-15 13:50:00,77.2,63.2,30.10,WNW,293,2.2,4.0,62,0.00,,,0.02,WUHU216HW,2013-09-15 18:50:00,
2013-09-15 13:55:00,77.4,63.4,30.10,SSE,158,1.1,2.2,62,0.00,,,0.02,WUHU216HW,2013-09-15 18:55:00,
2013-09-15 14:00:00,78.1,63.6,30.10,WSW,248,1.1,2.5,61,0.00,,,0.02,WUHU216HW,2013-09-15 19:00:00,
2013-09-15 14:05:00,78.5,64.0,30.09,SSE,158,3.4,3.4,61,0.00,,,0.02,WUHU216HW,2013-09-15 19:05:00,
2013-09-15 14:10:00,78.8,64.4,30.09,SSW,203,0.0,3.4,61,0.00,,,0.02,WUHU216HW,2013-09-15 19:10:00,
2013-09-15 14:15:00,79.2,64.3,30.09,WSW,248,1.8,3.4,60,0.00,,,0.02,WUHU216HW,2013-09-15 19:15:00,
2013-09-15 14:18:00,79.4,64.4,30.09,NW,315,0.9,1.8,60,0.00,,,0.02,WUHU216HW,2013-09-15 19:18:00,
2013-09-15 14:23:00,79.6,64.0,30.09,SW,225,0.7,1.8,59,0.00,,,0.02,WUHU216HW,2013-09-15 19:23:00,
2013-09-15 14:28:00,80.1,64.0,30.09,West,270,1.8,2.7,58,0.00,,,0.02,WUHU216HW,2013-09-15 19:28:00,
2013-09-15 14:33:00,80.5,64.4,30.09,ESE,113,0.7,2.7,58,0.00,,,0.02,WUHU216HW,2013-09-15 19:33:00,
2013-09-15 14:38:00,80.6,64.0,30.08,WSW,248,2.2,2.5,57,0.00,,,0.02,WUHU216HW,2013-09-15 19:38:00,
2013-09-15 14:43:00,81.0,64.3,30.09,SSE,158,0.9,2.5,57,0.00,,,0.02,WUHU216HW,2013-09-15 19:43:00,
2013-09-15 14:48:00,80.8,64.1,30.09,SSE,158,0.9,2.2,57,0.00,,,0.02,WUHU216HW,2013-09-15 19:48:00,
2013-09-15 14:53:00,80.6,64.0,30.09,South,180,1.3,1.6,57,0.00,,,0.02,WUHU216HW,2013-09-15 19:53:00,
2013-09-15 14:58:00,80.6,64.0,30.08,SW,225,0.4,1.3,57,0.00,,,0.02,WUHU216HW,2013-09-15 19:58:00,
2013-09-15 15:03:00,80.8,64.6,30.09,NE,45,0.9,1.3,58,0.00,,,0.02,WUHU216HW,2013-09-15 20:03:00,
2013-09-15 15:08:00,81.2,64.4,30.09,SSE,158,1.1,1.1,57,0.00,,,0.02,WUHU216HW,2013-09-15 20:08:00,
2013-09-15 15:13:00,81.4,64.6,30.08,West,270,0.7,1.1,57,0.00,,,0.02,WUHU216HW,2013-09-15 20:13:00,
2013-09-15 15:18:00,81.4,64.6,30.08,WSW,248,1.8,1.8,57,0.00,,,0.02,WUHU216HW,2013-09-15 20:18:00,
2013-09-15 15:23:00,81.4,64.1,30.08,South,180,0.4,1.8,56,0.00,,,0.02,WUHU216HW,2013-09-15 20:23:00,
2013-09-15 15:28:00,81.2,63.9,30.08,South,180,2.5,2.5,56,0.00,,,0.02,WUHU216HW,2013-09-15 20:28:00,
2013-09-15 15:33:00,81.0,64.3,30.08,SW,225,2.0,2.5,57,0.00,,,0.02,WUHU216HW,2013-09-15 20:33:00,
2013-09-15 15:38:00,81.2,63.9,30.08,SW,225,0.0,2.5,56,0.00,,,0.02,WUHU216HW,2013-09-15 20:38:00,
2013-09-15 15:43:00,81.4,64.6,30.09,NW,315,1.1,2.0,57,0.00,,,0.02,WUHU216HW,2013-09-15 20:43:00,
2013-09-15 15:48:00,81.4,64.6,30.08,NW,315,1.1,1.1,57,0.00,,,0.02,WUHU216HW,2013-09-15 20:48:00,
2013-09-15 15:53:00,81.7,64.5,30.08,SW,225,0.7,1.1,56,0.00,,,0.02,WUHU216HW,2013-09-15 20:53:00,
2013-09-15 15:58:00,81.7,64.5,30.08,SE,135,1.1,1.1,56,0.00,,,0.02,WUHU216HW,2013-09-15 20:58:00,
2013-09-15 16:03:00,81.7,63.9,30.08,NNW,338,1.8,1.8,55,0.00,,,0.02,WUHU216HW,2013-09-15 21:03:00,
2013-09-15 16:08:00,81.9,64.5,30.09,ESE,113,0.9,1.8,56,0.00,,,0.02,WUHU216HW,2013-09-15 21:08:00,
2013-09-15 16:13:00,81.9,64.5,30.09,WSW,248,1.8,1.8,56,0.00,,,0.02,WUHU216HW,2013-09-15 21:13:00,
2013-09-15 16:18:00,81.9,64.1,30.09,South,180,0.7,1.8,55,0.00,,,0.02,WUHU216HW,2013-09-15 21:18:00,
2013-09-15 16:23:00,81.9,64.1,30.09,SE,135,1.6,1.8,55,0.00,,,0.02,WUHU216HW,2013-09-15 21:23:00,
2013-09-15 16:28:00,81.9,64.5,30.09,WSW,248,1.6,1.6,56,0.00,,,0.02,WUHU216HW,2013-09-15 21:28:00,
2013-09-15 16:33:00,82.3,64.9,30.09,SSE,158,0.0,1.8,56,0.00,,,0.02,WUHU216HW,2013-09-15 21:33:00,
2013-09-15 16:38:00,82.4,65.1,30.09,SSE,158,1.3,1.8,56,0.00,,,0.02,WUHU216HW,2013-09-15 21:38:00,
2013-09-15 16:43:00,82.4,65.1,30.09,NNE,23,0.4,1.3,56,0.00,,,0.02,WUHU216HW,2013-09-15 21:43:00,
2013-09-15 16:48:00,82.3,64.9,30.09,North,0,2.2,2.2,56,0.00,,,0.02,WUHU216HW,2013-09-15 21:48:00,
2013-09-15 16:52:00,81.9,64.1,30.09,NNE,23,1.1,2.2,55,0.00,,,0.02,WUHU216HW,2013-09-15 21:52:00,
2013-09-15 16:58:00,81.9,64.5,30.09,ENE,68,0.2,2.2,56,0.00,,,0.02,WUHU216HW,2013-09-15 21:58:00,
2013-09-15 17:02:00,81.7,64.5,30.09,NNW,338,0.4,1.1,56,0.00,,,0.02,WUHU216HW,2013-09-15 22:02:00,
2013-09-15 17:07:00,81.7,64.5,30.09,NNW,338,1.1,1.1,56,0.00,,,0.02,WUHU216HW,2013-09-15 22:07:00,
2013-09-15 17:12:00,81.7,64.5,30.09,North,0,0.0,1.1,56,0.00,,,0.02,WUHU216HW,2013-09-15 22:12:00,
2013-09-15 17:18:00,81.5,64.3,30.09,NNW,338,0.4,1.1,56,0.00,,,0.02,WUHU216HW,2013-09-15 22:18:00,
2013-09-15 17:22:00,81.4,64.1,30.09,NW,315,1.3,1.3,56,0.00,,,0.02,WUHU216HW,2013-09-15 22:22:00,
2013-09-15 17:27:00,81.4,64.6,30.09,NNE,23,1.1,1.3,57,0.00,,,0.02,WUHU216HW,2013-09-15 22:27:00,
2013-09-15 17:32:00,81.4,64.6,30.09,East,90,1.1,1.3,57,0.00,,,0.02,WUHU216HW,2013-09-15 22:32:00,
2013-09-15 17:37:00,81.2,64.4,30.10,NNE,23,2.2,2.2,57,0.00,,,0.02,WUHU216HW,2013-09-15 22:37:00,
2013-09-15 17:42:00,81.0,64.8,30.10,West,270,0.7,2.2,58,0.00,,,0.02,WUHU216HW,2013-09-15 22:42:00,
2013-09-15 17:47:00,80.6,65.0,30.10,NE,45,1.6,2.2,59,0.00,,,0.02,WUHU216HW,2013-09-15 22:47:00,
2013-09-15 17:52:00,80.3,64.7,30.10,ENE,68,1.8,4.0,59,0.00,,,0.02,WUHU216HW,2013-09-15 22:52:00,
2013-09-15 17:57:00,79.6,64.5,30.10,NNW,338,3.4,4.0,60,0.00,,,0.02,WUHU216HW,2013-09-15 22:57:00,
2013-09-15 18:02:00,79.2,64.6,30.11,West,270,1.1,3.4,61,0.00,,,0.02,WUHU216HW,2013-09-15 23:02:00,
2013-09-15 18:07:00,78.8,64.8,30.11,NNW,338,1.3,3.4,62,0.00,,,0.02,WUHU216HW,2013-09-15 23:07:00,
2013-09-15 18:12:00,78.7,64.6,30.11,NE,45,3.8,3.8,62,0.00,,,0.02,WUHU216HW,2013-09-15 23:12:00,
2013-09-15 18:17:00,78.3,64.7,30.12,SE,135,3.4,3.8,63,0.00,,,0.02,WUHU216HW,2013-09-15 23:17:00,
2013-09-15 18:22:00,77.8,64.6,30.12,North,0,3.6,3.8,64,0.00,,,0.02,WUHU216HW,2013-09-15 23:22:00,
2013-09-15 18:27:00,77.4,64.7,30.12,East,90,1.8,3.6,65,0.00,,,0.02,WUHU216HW,2013-09-15 23:27:00,
2013-09-15 18:32:00,77.0,64.8,30.12,NNW,338,4.5,4.5,66,0.00,,,0.02,WUHU216HW,2013-09-15 23:32:00,
2013-09-15 18:37:00,76.7,64.4,30.13,ESE,113,6.3,6.3,66,0.00,,,0.02,WUHU216HW,2013-09-15 23:37:00,
2013-09-15 18:42:00,76.5,64.7,30.13,NNW,338,7.6,7.6,67,0.00,,,0.02,WUHU216HW,2013-09-15 23:42:00,
2013-09-15 18:47:00,76.1,64.4,30.13,West,270,3.8,7.6,67,0.00,,,0.02,WUHU216HW,2013-09-15 23:47:00,
2013-09-15 18:52:00,75.2,64.4,30.14,ESE,113,4.7,7.6,69,0.00,,,0.02,WUHU216HW,2013-09-15 23:52:00,
2013-09-15 18:57:00,75.1,64.6,30.13,NNW,338,1.8,4.7,70,0.00,,,0.02,WUHU216HW,2013-09-15 23:57:00,
2013-09-15 19:02:00,74.7,64.7,30.13,East,90,3.4,4.7,71,0.00,,,0.02,WUHU216HW,2013-09-16 00:02:00,
2013-09-15 19:07:00,74.5,64.5,30.14,NNE,23,2.5,3.4,71,0.00,,,0.02,WUHU216HW,2013-09-16 00:07:00,
2013-09-15 19:12:00,74.2,64.6,30.14,North,0,3.6,3.6,72,0.00,,,0.02,WUHU216HW,2013-09-16 00:12:00,
2013-09-15 19:17:00,73.8,64.6,30.14,NE,45,2.5,3.6,73,0.00,,,0.02,WUHU216HW,2013-09-16 00:17:00,
2013-09-15 19:22:00,73.4,65.1,30.14,ESE,113,1.6,3.6,75,0.00,,,0.02,WUHU216HW,2013-09-16 00:22:00,
2013-09-15 19:27:00,73.1,64.7,30.14,NNW,338,4.9,4.9,75,0.00,,,0.02,WUHU216HW,2013-09-16 00:27:00,
2013-09-15 19:32:00,72.7,64.7,30.15,SE,135,1.8,4.9,76,0.00,,,0.02,WUHU216HW,2013-09-16 00:32:00,
2013-09-15 19:37:00,72.4,64.7,30.15,NE,45,1.3,4.9,77,0.00,,,0.02,WUHU216HW,2013-09-16 00:37:00,
2013-09-15 19:42:00,72.4,64.7,30.15,NE,45,1.3,3.4,77,0.00,,,0.02,WUHU216HW,2013-09-16 00:42:00,
2013-09-15 19:47:00,71.8,63.8,30.15,NNW,338,1.6,1.6,76,0.00,,,0.02,WUHU216HW,2013-09-16 00:47:00,
2013-09-15 19:52:00,71.6,64.0,30.15,North,0,4.7,4.7,77,0.00,,,0.02,WUHU216HW,2013-09-16 00:52:00,
2013-09-15 19:57:00,71.5,64.3,30.16,NNW,338,2.5,4.7,78,0.00,,,0.02,WUHU216HW,2013-09-16 00:57:00,
2013-09-15 20:02:00,71.3,64.1,30.16,SSE,158,1.3,4.7,78,0.00,,,0.02,WUHU216HW,2013-09-16 01:02:00,
2013-09-15 20:07:00,71.1,64.3,30.16,NE,45,2.5,2.5,79,0.00,,,0.02,WUHU216HW,2013-09-16 01:07:00,
2013-09-15 20:12:00,70.9,64.1,30.17,NNE,23,1.8,2.5,79,0.00,,,0.02,WUHU216HW,2013-09-16 01:12:00,
2013-09-15 20:17:00,70.9,64.1,30.17,NW,315,0.4,2.5,79,0.00,,,0.02,WUHU216HW,2013-09-16 01:17:00,
2013-09-15 20:22:00,70.9,64.4,30.17,NNW,338,3.1,3.1,80,0.00,,,0.02,WUHU216HW,2013-09-16 01:22:00,
2013-09-15 20:27:00,70.7,64.3,30.17,NNW,338,2.7,3.1,80,0.00,,,0.02,WUHU216HW,2013-09-16 01:27:00,
2013-09-15 20:32:00,70.6,64.1,30.17,North,0,1.6,3.1,80,0.00,,,0.02,WUHU216HW,2013-09-16 01:32:00,
2013-09-15 20:37:00,70.4,63.9,30.17,ESE,113,1.1,2.7,80,0.00,,,0.02,WUHU216HW,2013-09-16 01:37:00,
2013-09-15 20:42:00,70.4,64.3,30.18,NE,45,2.7,2.7,81,0.00,,,0.02,WUHU216HW,2013-09-16 01:42:00,
2013-09-15 20:47:00,70.2,64.1,30.18,ESE,113,2.9,2.9,81,0.00,,,0.02,WUHU216HW,2013-09-16 01:47:00,
2013-09-15 20:52:00,70.2,64.5,30.18,NNW,338,3.4,3.4,82,0.00,,,0.02,WUHU216HW,2013-09-16 01:52:00,
2013-09-15 20:57:00,70.0,64.3,30.18,NNE,23,1.8,3.4,82,0.00,,,0.02,WUHU216HW,2013-09-16 01:57:00,
2013-09-15 21:02:00,70.0,64.3,30.19,NNE,23,1.8,3.4,82,0.00,,,0.02,WUHU216HW,2013-09-16 02:02:00,
2013-09-15 21:07:00,70.0,64.3,30.19,NNE,23,1.6,2.9,82,0.00,,,0.02,WUHU216HW,2013-09-16 02:07:00,
2013-09-15 21:12:00,70.0,64.3,30.19,ENE,68,1.8,2.9,82,0.00,,,0.02,WUHU216HW,2013-09-16 02:12:00,
2013-09-15 21:17:00,70.0,64.3,30.19,ESE,113,1.1,1.8,82,0.00,,,0.02,WUHU216HW,2013-09-16 02:17:00,
2013-09-15 21:22:00,69.8,64.1,30.19,NE,45,1.8,1.8,82,0.00,,,0.02,WUHU216HW,2013-09-16 02:22:00,
2013-09-15 21:27:00,69.8,64.4,30.19,ENE,68,1.8,1.8,83,0.00,,,0.02,WUHU216HW,2013-09-16 02:27:00,
2013-09-15 21:32:00,69.8,64.4,30.19,NNE,23,1.3,1.8,83,0.00,,,0.02,WUHU216HW,2013-09-16 02:32:00,
2013-09-15 21:37:00,69.8,64.4,30.19,North,0,1.8,1.8,83,0.00,,,0.02,WUHU216HW,2013-09-16 02:37:00,
2013-09-15 21:42:00,69.7,64.3,30.19,SE,135,6.3,6.3,83,0.00,,,0.02,WUHU216HW,2013-09-16 02:42:00,
2013-09-15 21:47:00,69.5,63.7,30.19,North,0,2.7,6.3,82,0.00,,,0.02,WUHU216HW,2013-09-16 02:47:00,
2013-09-15 21:52:00,69.5,63.7,30.19,NE,45,3.4,6.3,82,0.00,,,0.02,WUHU216HW,2013-09-16 02:52:00,
2013-09-15 21:57:00,69.3,63.5,30.20,ESE,113,2.9,3.4,82,0.00,,,0.02,WUHU216HW,2013-09-16 02:57:00,
2013-09-15 22:02:00,69.1,63.1,30.20,NW,315,2.5,4.3,81,0.00,,,0.02,WUHU216HW,2013-09-16 03:02:00,
2013-09-15 22:07:00,69.1,63.1,30.20,SE,135,1.3,4.3,81,0.00,,,0.02,WUHU216HW,2013-09-16 03:07:00,
2013-09-15 22:12:00,68.9,62.9,30.20,ESE,113,3.6,3.6,81,0.00,,,0.02,WUHU216HW,2013-09-16 03:12:00,
2013-09-15 22:17:00,68.9,62.9,30.20,NE,45,2.2,3.6,81,0.00,,,0.02,WUHU216HW,2013-09-16 03:17:00,
2013-09-15 22:22:00,68.8,62.7,30.20,NNE,23,2.2,4.7,81,0.00,,,0.02,WUHU216HW,2013-09-16 03:22:00,
2013-09-15 22:27:00,68.8,62.7,30.20,NNE,23,2.2,4.7,81,0.00,,,0.02,WUHU216HW,2013-09-16 03:27:00,
2013-09-15 22:32:00,68.4,62.7,30.21,NNE,23,1.1,2.7,82,0.00,,,0.02,WUHU216HW,2013-09-16 03:32:00,
2013-09-15 22:37:00,68.4,62.7,30.21,SE,135,4.7,4.7,82,0.00,,,0.02,WUHU216HW,2013-09-16 03:37:00,
2013-09-15 22:42:00,68.4,62.7,30.20,NE,45,4.9,4.9,82,0.00,,,0.02,WUHU216HW,2013-09-16 03:42:00,
2013-09-15 22:47:00,68.2,62.9,30.21,NE,45,2.2,4.9,83,0.00,,,0.02,WUHU216HW,2013-09-16 03:47:00,
2013-09-15 22:52:00,68.2,62.9,30.21,NE,45,4.9,4.9,83,0.00,,,0.02,WUHU216HW,2013-09-16 03:52:00,
2013-09-15 22:57:00,68.0,62.7,30.21,NNE,23,1.8,4.9,83,0.00,,,0.02,WUHU216HW,2013-09-16 03:57:00,
2013-09-15 23:01:00,68.0,63.0,30.21,ESE,113,6.3,6.3,84,0.00,,,0.02,WUHU216HW,2013-09-16 04:01:00,
2013-09-15 23:02:00,68.0,63.0,30.21,NE,45,2.9,6.3,84,0.00,,,0.02,WUHU216HW,2013-09-16 04:02:00,
2013-09-15 23:07:00,68.0,63.0,30.21,East,90,3.4,6.3,84,0.00,,,0.02,WUHU216HW,2013-09-16 04:07:00,
2013-09-15 23:12:00,68.0,63.0,30.21,East,90,1.1,3.4,84,0.00,,,0.02,WUHU216HW,2013-09-16 04:12:00,
2013-09-15 23:17:00,68.0,63.0,30.21,East,90,4.5,4.5,84,0.00,,,0.02,WUHU216HW,2013-09-16 04:17:00,
2013-09-15 23:22:00,67.9,62.8,30.21,North,0,4.5,4.5,84,0.00,,,0.02,WUHU216HW,2013-09-16 04:22:00,
2013-09-15 23:27:00,67.9,62.8,30.21,NNE,23,1.8,4.5,84,0.00,,,0.02,WUHU216HW,2013-09-16 04:27:00,
2013-09-15 23:32:00,67.7,62.6,30.21,East,90,2.5,4.5,84,0.00,,,0.02,WUHU216HW,2013-09-16 04:32:00,
2013-09-15 23:37:00,67.7,62.6,30.22,ENE,68,4.7,4.7,84,0.00,,,0.02,WUHU216HW,2013-09-16 04:37:00,
2013-09-15 23:42:00,67.5,62.5,30.22,SE,135,5.4,5.4,84,0.00,,,0.02,WUHU216HW,2013-09-16 04:42:00,
2013-09-15 23:47:00,67.7,63.0,30.22,East,90,5.4,5.4,85,0.00,,,0.02,WUHU216HW,2013-09-16 04:47:00,
2013-09-15 23:52:00,67.3,62.6,30.23,ESE,113,0.9,5.4,85,0.00,,,0.02,WUHU216HW,2013-09-16 04:52:00,
2013-09-15 23:57:00,67.1,63.1,30.23,NNW,338,0.7,5.4,87,0.01,,,0.03,WUHU216HW,2013-09-16 04:57:00,